Location: Trebic
(49.2170°N, 15.8830°E)
Time: 22:11:37
(UTC+01:00)

Transit 4A - Pass Details

Date: 07 November 2020
Orbit: 862 x 982 km, 66.8° (Epoch: 30 November)

Event Time Altitude Azimuth Distance (km) Brightness Sun altitude
Rises 17:56:16 0° 311° (NW) 3,688 11.6 -15.0°
Reaches altitude 10° 17:59:53 10° 331° (NNW) 2,745 10.6 -15.6°
Maximum altitude 18:03:59 17° 11° (N) 2,258 9.7 -16.3°
Enters shadow 18:06:41 14° 40° (NE) 2,477 9.7 -16.7°
